N8DH Weather Reports


Display with metric or nautical units.
time (UTC)temp
F
wind
direction
speed
MPH
gust
MPH
rain 1hr
in
rain 24hr
in
rain mn
in
humidity
%
barometer
mb
20260502163017 42 304 2.0 6.0 0.00 0.28 0.13 73 1012.1
20260502161515 42 344 3.0 7.0 0.00 0.28 0.13 71 1012.0
20260502151521 40 30 0.0 5.0 0.00 0.36 0.13 83 1012.1
20260502123028 36 37 2.0 12.0 0.01 0.54 0.13 92 1011.2
20260502121517 37 14 1.0 4.0 0.01 0.54 0.13 93 1011.1
20260502114520 36 342 0.0 4.0 0.04 0.55 0.13 93 1010.9
20260502113024 35 67 1.0 7.0 0.03 0.54 0.12 93 1010.7
20260502111525 35 83 0.0 3.0 0.03 0.54 0.12 93 1010.6
20260502110023 36 331 0.0 4.0 0.01 0.54 0.10 93 1010.4
20260502104517 36 287 0.0 5.0 0.00 0.53 0.09 92 1010.2
20260502103017 36 262 1.0 4.0 0.02 0.53 0.09 92 1010.1
20260502101514 36 303 0.0 3.0 0.03 0.53 0.09 93 1010.0
20260502091509 37 51 1.0 2.0 0.00 0.50 0.06 94 1009.7
20260502071516 39 355 0.0 2.0 0.02 0.48 0.04 93 1009.5
20260502070018 39 33 0.0 2.0 0.04 0.48 0.04 93 1009.6
20260502064510 38 61 0.0 2.0 0.04 0.48 0.04 93 1009.7
20260502063014 39 53 3.0 5.0 0.03 0.47 0.03 93 1009.7
20260502061509 39 16 2.0 5.0 0.02 0.46 0.02 93 1009.8
20260502060012 40 28 3.0 4.0 0.00 0.44 0.00 93 1010.0
20260502054533 40 62 0.0 2.0 0.00 0.44 0.00 93 1010.1
20260502053026 40 128 0.0 0.0 0.00 0.44 0.00 93 1010.2
20260502051522 40 128 0.0 0.0 0.00 0.44 0.00 93 1010.1
20260502050022 40 128 0.0 0.0 0.00 0.44 0.00 93 1010.2
20260502044521 40 128 0.0 0.0 0.00 0.44 0.00 93 1010.2
20260502043017 40 128 0.0 0.0 0.00 0.44 0.00 92 1010.2
20260502041517 40 128 0.0 0.0 0.00 0.44 0.00 92 1010.3
20260502040014 40 128 0.0 0.0 0.01 0.44 0.44 91 1010.3
20260502034512 40 173 0.0 0.0 0.05 0.44 0.44 91 1010.3
20260502033010 40 175 0.0 2.0 0.09 0.44 0.44 90 1010.2
20260502031507 40 202 1.0 3.0 0.10 0.44 0.44 90 1010.3
20260502030008 40 235 1.0 5.0 0.09 0.43 0.43 90 1010.3
20260502024525 41 250 3.0 6.0 0.05 0.39 0.39 87 1010.3
20260502023020 42 237 0.0 0.0 0.01 0.35 0.35 88 1010.1
20260502021519 42 215 0.0 0.0 0.00 0.34 0.34 89 1009.8
20260502020018 42 215 0.0 0.0 0.00 0.34 0.34 91 1009.8
20260502014525 41 215 0.0 0.0 0.00 0.34 0.34 92 1009.6
20260502013016 41 251 0.0 0.0 0.00 0.34 0.34 92 1009.4
20260502011556 41 251 0.0 0.0 0.00 0.34 0.34 91 1009.4
20260502010022 41 251 0.0 0.0 0.00 0.34 0.34 89 1009.3
20260502004539 42 251 0.0 0.0 0.00 0.34 0.34 87 1009.3
20260502003019 42 251 0.0 0.0 0.00 0.34 0.34 85 1009.1
20260502001520 42 251 0.0 0.0 0.00 0.34 0.34 83 1008.9
20260502000020 43 251 0.0 0.0 0.00 0.34 0.34 82 1008.8
20260501234525 43 242 0.0 0.0 0.00 0.34 0.34 79 1008.5
20260501233020 44 242 0.0 2.0 0.00 0.34 0.34 78 1008.6
20260501231524 44 246 0.0 2.0 0.00 0.34 0.34 76 1008.6
20260501230020 45 256 1.0 3.0 0.00 0.34 0.34 73 1008.6
20260501224514 45 269 1.0 3.0 0.00 0.34 0.34 76 1008.5
20260501223010 44 51 2.0 6.0 0.00 0.34 0.34 77 1008.5
20260501221553 44 5 2.0 4.0 0.00 0.34 0.34 77 1008.4
20260501220024 45 305 0.0 3.0 0.00 0.34 0.34 77 1008.4
20260501214522 45 9 0.0 4.0 0.00 0.34 0.34 79 1008.3
20260501213017 44 360 2.0 6.0 0.00 0.34 0.34 78 1008.2
20260501211517 44 335 0.0 4.0 0.00 0.34 0.34 79 1008.0
20260501210014 44 355 2.0 5.0 0.00 0.34 0.34 78 1007.9
20260501204509 44 25 2.0 7.0 0.00 0.34 0.34 81 1007.8
20260501203007 43 15 4.0 6.0 0.00 0.34 0.34 81 1007.7
20260501201509 43 36 3.0 8.0 0.00 0.34 0.34 82 1007.5
20260501200025 43 15 3.0 6.0 0.00 0.34 0.34 85 1007.5
20260501194522 43 27 3.0 8.0 0.01 0.34 0.34 87 1007.6
20260501193027 42 360 4.0 9.0 0.01 0.34 0.34 88 1007.6
20260501191525 42 315 4.0 10.0 0.02 0.34 0.34 90 1007.4
20260501190021 42 311 3.0 8.0 0.03 0.34 0.34 91 1007.2
20260501184517 42 313 2.0 5.0 0.03 0.33 0.33 90 1007.0
20260501183019 42 9 3.0 7.0 0.03 0.33 0.33 89 1006.9
20260501181514 42 327 3.0 6.0 0.02 0.32 0.32 89 1006.8
20260501180017 42 337 0.0 7.0 0.01 0.31 0.31 90 1006.7
20260501174520 42 343 1.0 4.0 0.00 0.30 0.30 90 1006.6
20260501173008 42 336 1.0 7.0 0.01 0.30 0.30 90 1006.5
20260501171526 42 325 1.0 6.0 0.01 0.30 0.30 91 1006.3
20260501170025 42 27 2.0 5.0 0.01 0.34 0.30 90 1006.4
20260501164535 42 16 2.0 4.0 0.03 0.34 0.30 90 1006.3